Location: Cassano d�Adda
(45.5333°N, 9.5167°E)
Time: 05:20:52
(UTC+00:00)

Cosmos 2219 Rocket - Pass Details

Date: 08 December 2019
Orbit: 826 x 848 km, 71.0° (Epoch: 24 January)

Event Time Altitude Azimuth Distance (km) Brightness Sun altitude
Rises 18:17:41 0° 256° (WSW) 3,372 6.6 -27.0°
Reaches altitude 10° 18:20:58 10° 276° (W) 2,446 5.5 -27.5°
Maximum altitude 18:24:39 18° 317° (NW) 1,972 4.5 -28.2°
Enters shadow 18:28:20 10° 358° (N) 2,456 4.6 -28.8°
